UNISAT-6 (40012 NORAD) Tracking and Keplerian Element Data

This shows tracking and keplerian element data for the satellite.

Feedback or suggestion? Click here.




ElementValue
Catalog40012
NameUNISAT-6
Epoch Orbit26532
Epoch Day146.86627619
Epoch Year2019
RAAN14.4579
Inclination97.7609
Eccentricity0.0058494
Argument of Perigee170.0756
Mean Anonmoly190.1624
Mean Motion14.73968003
Decay Rate1.09E-06
L11 40012U 14033C 19146.86627619 .00000109 00000-0 23664-4 0 9999
L22 40012 97.7609 14.4579 0058494 170.0756 190.1624 14.73968003265325

Live tracking and technical data element details for UNISAT-6 (NORAD 40012). UNISAT-6 can be tracked NOW for your location showing map with azimuth and elevation plus other details from your city location.

Track the satellite on the map from your city or location and see movement details for azimuth, elevation, latitude, longitude, range, height, and movement on the map or in text.







IsCatalogInMostPopularTable: catalog: 40012, numindb: 201
Update: records affected: 1



GetName: 40012 UNISAT-6

Hit Count: updated at: Mon, 27 May 2019 03:25:06 GMT